Location: La B�doule
(43.2468°N, 5.5934°E)
Time: 04:27:02
(UTC+00:00)

Shenzhou-11 Module - Pass Details

Date: 07 June 2020
Orbit: 265 x 286 km, 42.8° (Epoch: 04 July)

Event Time Altitude Azimuth Distance (km) Brightness Sun altitude
Exits shadow 02:24:33 32° 267° (W) 484 2.2 -13.5°
Maximum altitude 02:25:28 81° 185° (S) 272 1.1 -13.4°
Drops below altitude 10° 02:27:51 10° 96° (E) 1,066 4.8 -13.1°
Sets 02:29:45 0° 95° (E) 1,877 6.1 -12.9°
